DateTimeUTC,F1_A11,F1_S11,BsB_S11,BsG_S11,BsR_S11,BbsB_S11,BbsG_S11,BbsR_S11,BaB_A11,BaG_A11,BaR_A11,T_S11,U_S11,P_S11,T1_A11
2020-05-25T00:00:00Z,00000380,20000600,,,,,,,,,,25.1,01.1,0662.1,31.1
2020-05-25T00:01:00Z,00000380,20000600,,,,,,,,,,25.1,01.1,0662.1,31.1
2020-05-25T00:02:00Z,00000380,20000600,,,,,,,,,,25.1,01.1,0662.1,31.1
2020-05-25T00:03:00Z,00000380,60000600,,,,,,,,,,25.1,01.1,0662.1,31.1
2020-05-25T00:04:00Z,00000380,40000600,0002.58,0001.55,0001.35,0000.73,0000.19,0000.38,0000.25,0000.16,0000.14,24.9,01.3,0663.0,31.1
2020-05-25T00:05:00Z,00000380,00000600,0002.59,0001.29,0001.07,0001.00,0000.26,-000.17,0000.13,0000.12,0000.03,24.8,01.4,0663.1,31.1
2020-05-25T00:06:00Z,00000380,01000600,0001.15,0001.20,0001.13,0000.39,0000.23,0000.31,0000.13,0000.16,0000.21,24.8,01.3,0663.1,31.1
2020-05-25T00:07:00Z,00000380,00000600,0002.60,0001.71,0001.12,0000.81,0000.46,0000.19,0000.13,0000.14,0000.10,24.8,01.4,0663.0,31.1
2020-05-25T00:08:00Z,00000380,00000600,0002.10,0001.33,0000.16,-000.41,0000.20,0000.01,0000.25,0000.12,0000.22,24.8,01.3,0663.0,31.1
2020-05-25T00:09:00Z,00000380,00000600,0003.21,0001.60,0000.68,-000.03,0000.44,-000.21,0000.19,0000.22,0000.04,24.8,01.4,0663.1,31.1
2020-05-25T00:10:00Z,00000380,00000600,0002.41,0001.59,0001.22,0000.66,0000.47,0000.10,0000.12,0000.07,0000.14,24.8,01.4,0663.1,31.1
2020-05-25T00:11:00Z,00000380,01000600,0002.93,0001.48,0001.64,0001.13,0000.75,0000.22,0000.19,0000.26,0000.07,24.8,01.4,0663.1,31.1
2020-05-25T00:12:00Z,00000380,00000600,0003.06,0001.54,0000.74,0000.54,0000.11,-000.25,0000.11,-000.03,-000.05,24.8,01.4,0663.1,31.1
2020-05-25T00:13:00Z,00000380,00000600,0002.17,0001.46,0001.06,0000.38,0000.17,-000.04,0000.26,0000.23,0000.26,24.8,01.4,0663.1,31.1
2020-05-25T00:14:00Z,00000380,00000600,0002.31,0001.66,0000.95,0000.91,0000.39,0000.44,0000.10,0000.10,0000.03,24.8,01.5,0663.0,31.1
2020-05-25T00:15:00Z,00000380,00000600,0002.64,0001.99,0001.18,0000.11,0000.38,0000.26,0000.26,0000.29,0000.22,24.8,01.4,0663.0,31.1
2020-05-25T00:16:00Z,00000380,00000600,0003.05,0001.51,0001.03,0000.13,0000.20,-000.03,0000.07,-000.01,0000.07,24.8,01.4,0663.0,31.1
2020-05-25T00:17:00Z,00000380,00000600,0004.62,0001.45,0000.82,0000.55,0000.46,-000.03,0000.11,0000.14,0000.08,24.8,01.5,0663.0,31.1
2020-05-25T00:18:00Z,00000380,00000600,0002.60,0000.86,0000.72,0000.21,0000.56,-000.17,0000.19,0000.33,0000.19,24.8,01.4,0663.1,31.1
2020-05-25T00:19:00Z,00000380,00000600,0002.49,0001.48,0001.47,0001.04,0000.67,-000.00,0000.31,0000.15,0000.19,24.8,01.5,0663.1,31.1
2020-05-25T00:20:00Z,00000380,00000600,0003.16,0001.59,0001.74,0000.28,0000.32,0000.21,0000.04,0000.12,-000.00,24.8,01.5,0663.1,31.1
2020-05-25T00:21:00Z,00000380,00000600,0002.41,0001.70,0001.10,0000.11,0000.09,-000.20,0000.23,0000.20,0000.16,24.8,01.5,0663.1,31.1
2020-05-25T00:22:00Z,00000380,00000600,0002.01,0001.84,0000.85,0000.89,0000.20,0000.26,0000.19,0000.20,0000.22,24.8,01.5,0663.0,31.1
2020-05-25T00:23:00Z,00000380,00000600,0003.44,0001.79,0001.08,0000.73,0000.03,-000.28,0000.18,0000.12,0000.08,24.8,01.5,0663.1,31.1
2020-05-25T00:24:00Z,00000380,00000600,0003.14,0001.86,0001.31,0000.49,0000.25,-000.09,0000.15,0000.13,0000.08,24.8,01.6,0663.1,31.1
2020-05-25T00:25:00Z,00000380,00000600,0002.67,0001.64,0001.07,-000.04,-000.12,0000.32,0000.25,0000.27,0000.17,24.7,01.5,0663.1,31.1
2020-05-25T00:26:00Z,00000380,00000600,0001.22,0001.80,0001.04,0000.35,0000.64,0000.69,0000.08,0000.16,0000.12,24.7,01.4,0663.1,31.1
2020-05-25T00:27:00Z,00000380,00000600,0003.50,0001.62,0001.35,0000.39,0000.22,0000.67,0000.10,0000.10,0000.13,24.7,01.6,0663.1,31.1
2020-05-25T00:28:00Z,00000380,00000600,0003.81,0001.85,0001.30,0001.56,0000.33,0000.22,0000.14,0000.10,0000.01,24.7,01.4,0663.1,31.1
2020-05-25T00:29:00Z,00000380,00000600,0002.55,0001.81,0001.49,0001.38,0000.54,0000.08,0000.30,0000.17,0000.20,24.7,01.5,0663.1,31.1
2020-05-25T00:30:00Z,00000380,00000600,0002.65,0001.64,0001.29,0000.37,0000.20,0000.25,0000.10,0000.22,0000.19,24.7,01.5,0663.1,31.1
2020-05-25T00:31:00Z,00000380,00000600,0002.34,0001.77,0001.01,0000.33,0000.08,0000.47,0000.16,0000.07,-000.05,24.7,01.5,0663.1,31.1
2020-05-25T00:32:00Z,00000380,00000600,0003.10,0001.38,0000.89,0000.28,0000.15,0000.14,0000.18,0000.18,0000.12,24.7,01.4,0663.1,31.1
2020-05-25T00:33:00Z,00000380,00000600,0001.44,0001.52,0001.47,0001.54,0000.06,0000.41,0000.05,0000.06,0000.10,24.7,01.5,0663.1,31.1
2020-05-25T00:34:00Z,00000380,00000600,0000.99,0001.84,0001.44,0000.09,0000.13,0000.35,0000.09,0000.10,0000.17,24.7,01.5,0663.1,31.1
2020-05-25T00:35:00Z,00000380,00000600,0002.06,0001.00,0000.78,0000.23,0000.42,0000.12,0000.25,0000.12,0000.11,24.7,01.4,0663.1,31.1
2020-05-25T00:36:00Z,00000380,00000600,0002.54,0001.46,0001.30,0001.11,0000.58,-000.08,0000.08,0000.08,-000.02,24.7,01.4,0663.1,31.1
2020-05-25T00:37:00Z,00000380,00000600,0002.24,0001.80,0000.69,0001.04,0000.26,0000.56,0000.22,0000.17,0000.11,24.7,01.4,0663.0,31.1
2020-05-25T00:38:00Z,00000380,00000600,0002.45,0001.21,0000.95,0001.10,0000.16,0000.10,0000.17,0000.24,0000.09,24.7,01.5,0663.0,31.1
2020-05-25T00:39:00Z,00000380,00000600,0003.59,0001.24,0001.06,0000.69,0000.10,0000.29,0000.15,0000.10,0000.19,24.6,01.6,0663.1,31.1
2020-05-25T00:40:00Z,00000380,00000600,0002.71,0001.68,0000.99,0000.96,0000.50,0000.13,0000.09,0000.23,-000.00,24.7,01.5,0663.1,31.1
2020-05-25T00:41:00Z,00000380,00000600,0002.33,0001.85,0001.47,0000.92,0000.31,0000.06,0000.17,0000.15,0000.14,24.6,01.5,0663.1,31.1
2020-05-25T00:42:00Z,00000380,00000600,0003.13,0001.97,0001.29,0000.35,-000.03,0000.14,0000.26,0000.26,0000.25,24.6,01.5,0663.0,31.1
2020-05-25T00:43:00Z,00000380,01000600,0002.74,0001.43,0001.22,-000.11,0000.45,0000.55,0000.14,-000.02,0000.05,24.7,01.4,0663.0,31.1
2020-05-25T00:44:00Z,00000380,00000600,0002.88,0002.14,0001.71,0000.21,0000.24,0000.24,0000.06,0000.17,0000.12,24.6,01.5,0662.9,31.1
2020-05-25T00:45:00Z,00000380,00000600,0002.31,0001.20,0000.98,-000.16,0000.23,-000.18,0000.19,0000.17,0000.15,24.6,01.4,0663.0,31.1
2020-05-25T00:46:00Z,00000380,00000600,0001.75,0001.23,0001.00,0001.20,0000.29,0000.11,0000.07,0000.29,0000.10,24.6,01.5,0663.0,31.1
2020-05-25T00:47:00Z,00000380,00000600,0002.30,0001.52,0001.05,0000.76,0000.14,0000.12,0000.26,-000.02,0000.06,24.6,01.4,0663.0,31.1
2020-05-25T00:48:00Z,00000380,01000600,0001.95,0001.61,0000.97,0000.54,0000.47,0000.22,-000.03,0000.10,-000.01,24.6,01.4,0663.0,31.1
2020-05-25T00:49:00Z,00000380,00000600,0002.18,0002.06,0001.33,0000.78,0000.00,0000.37,0000.25,0000.18,0000.14,24.6,01.4,0663.0,31.1
2020-05-25T00:50:00Z,00000380,00000600,0002.60,0001.49,0001.58,-000.33,0000.30,0000.05,0000.19,0000.14,0000.05,24.6,01.5,0663.0,31.1
2020-05-25T00:51:00Z,00000380,00000600,0002.11,0001.38,0001.23,0000.33,0000.46,0000.69,0000.15,0000.14,0000.23,24.6,01.4,0662.9,31.1
2020-05-25T00:52:00Z,00000380,00000600,0002.87,0000.86,0001.22,0000.79,0000.14,0000.09,0000.26,0000.01,0000.26,24.6,01.4,0662.9,31.1
2020-05-25T00:53:00Z,00000380,00000600,0002.90,0002.28,0001.42,0000.29,0000.80,0000.68,0000.04,0000.30,-000.10,24.6,01.4,0662.9,31.1
2020-05-25T00:54:00Z,00000380,00000600,0002.24,0001.89,0001.00,0000.14,0000.15,0000.37,0000.12,0000.11,0000.20,24.6,01.4,0663.0,31.1
2020-05-25T00:55:00Z,00000380,01000600,0001.45,0001.20,0001.52,-000.17,0000.71,0000.24,0000.08,-000.04,0000.03,24.6,01.4,0663.0,31.1
2020-05-25T00:56:00Z,00000380,00000600,0002.39,0001.55,0000.76,0000.76,0000.79,-000.10,0000.15,0000.27,0000.07,24.6,01.4,0663.0,31.1
2020-05-25T00:57:00Z,00000380,40000600,,,,,,,,,,24.6,01.3,0663.0,31.1
2020-05-25T00:58:00Z,00000380,60000600,,,,,,,,,,24.7,01.3,0662.0,31.1
2020-05-25T00:59:00Z,00000380,20000600,,,,,,,,,,24.8,01.2,0662.0,31.1
2020-05-25T01:00:00Z,00000380,20000600,,,,,,,,,,24.8,01.1,0661.9,31.1
2020-05-25T01:01:00Z,00000380,20000600,,,,,,,,,,24.8,01.1,0661.9,31.1
2020-05-25T01:02:00Z,00000380,20000600,,,,,,,,,,24.8,01.1,0661.9,31.1
2020-05-25T01:03:00Z,00000380,60000600,,,,,,,,,,24.8,01.1,0661.9,31.1
2020-05-25T01:04:00Z,00000380,41000600,0003.53,0001.75,0000.77,-000.31,-000.18,0000.07,0000.14,0000.19,-000.01,24.6,01.2,0662.9,31.1
2020-05-25T01:05:00Z,00000380,01000600,0003.07,0001.40,0000.44,0000.82,0000.48,0000.40,0000.13,0000.29,0000.20,24.6,01.3,0662.9,31.1
2020-05-25T01:06:00Z,00000380,01000600,0002.77,0001.58,0001.22,-000.09,0000.45,-000.27,0000.09,-000.10,0000.09,24.6,01.3,0662.9,31.1
2020-05-25T01:07:00Z,00000380,00000600,0001.93,0001.45,0000.67,0000.05,0000.18,0000.08,0000.14,0000.18,0000.12,24.6,01.3,0662.9,31.1
2020-05-25T01:08:00Z,00000380,01000600,0001.46,0001.71,0001.03,-000.46,0000.16,0000.34,0000.13,0000.23,0000.11,24.6,01.4,0662.9,31.1
2020-05-25T01:09:00Z,00000380,01000600,0001.72,0002.06,0000.91,-000.37,0000.28,0000.09,0000.08,-000.04,0000.08,24.6,01.3,0663.0,31.1
2020-05-25T01:10:00Z,00000380,01000600,0003.72,0001.07,0000.86,0000.47,-000.00,0000.06,0000.21,0000.22,0000.15,24.5,01.3,0662.9,31.1
2020-05-25T01:11:00Z,00000380,01000600,0002.59,0001.25,0001.14,0000.17,0000.00,0000.35,-000.02,0000.13,-000.11,24.5,01.3,0662.9,31.1
2020-05-25T01:12:00Z,00000380,01000600,0002.32,0001.46,0000.94,0000.14,-000.12,0001.03,-000.05,-000.01,0000.02,24.5,01.3,0662.9,31.1
2020-05-25T01:13:00Z,00000380,01000600,0001.76,0000.57,0000.02,-000.48,-000.20,-000.20,0000.06,0000.03,0000.18,24.5,01.2,0662.9,31.1
2020-05-25T01:14:00Z,00000380,01000600,0003.32,0001.10,0000.72,-001.00,0000.98,-000.06,0000.28,0000.09,0000.22,24.5,01.2,0662.9,31.1
2020-05-25T01:15:00Z,00000380,01000600,0001.28,0001.50,0000.46,0000.77,0000.06,-000.09,-000.00,-000.07,-000.09,24.5,01.2,0662.9,31.1
2020-05-25T01:16:00Z,00000380,01000600,0002.66,0001.28,0000.83,-000.61,0000.17,0000.28,0000.16,0000.29,0000.10,24.5,01.2,0662.9,31.1
2020-05-25T01:17:00Z,00000380,01000600,0002.17,0001.49,0000.57,0000.09,-000.10,0000.23,0000.05,0000.02,0000.06,24.5,01.2,0662.9,31.1
2020-05-25T01:18:00Z,00000380,01000600,0001.51,0000.61,0000.39,0001.19,-000.14,-000.05,-000.02,0000.13,0000.02,24.5,01.2,0662.9,31.1
2020-05-25T01:19:00Z,00000380,01000600,0000.68,0001.02,0000.19,-000.21,0000.36,-000.52,0000.21,0000.01,0000.02,24.5,01.2,0662.9,31.1
2020-05-25T01:20:00Z,00000380,01000600,0002.55,0000.88,0000.72,0000.00,-000.27,-000.07,0000.18,-000.03,0000.17,24.5,01.2,0662.9,31.1
2020-05-25T01:21:00Z,00000380,01000600,0001.26,0001.21,0000.01,0000.03,0000.11,0000.19,0000.01,0000.32,0000.05,24.5,01.3,0662.9,31.1
2020-05-25T01:22:00Z,00000380,01000600,0000.35,0000.56,0000.01,0000.22,-000.33,0000.30,-000.11,-000.28,-000.13,24.5,01.2,0662.9,31.1
2020-05-25T01:23:00Z,00000380,01000600,0001.01,0000.74,-000.01,-000.20,-000.13,0000.53,0000.15,0000.24,0000.07,24.5,01.2,0662.9,31.1
2020-05-25T01:24:00Z,00000380,01000600,0001.03,0000.97,0000.54,-000.06,-000.27,-000.09,-000.04,0000.01,0000.05,24.5,01.1,0662.9,31.1
2020-05-25T01:25:00Z,00000380,01000600,0002.03,0001.46,0000.14,-000.08,0000.15,0000.21,0000.19,0000.00,0000.10,24.5,01.1,0662.9,31.1
2020-05-25T01:26:00Z,00000380,01000600,0000.61,0000.81,0000.44,-000.14,0000.42,0000.39,-000.03,-000.00,-000.01,24.5,01.1,0662.9,31.1
2020-05-25T01:27:00Z,00000380,01000600,0002.38,0000.75,0000.67,-000.58,-000.23,-000.14,0000.13,0000.22,0000.03,24.5,01.1,0662.9,31.1
2020-05-25T01:28:00Z,00000380,01000600,0000.99,0000.73,0000.10,-000.18,-000.22,-000.13,-000.09,0000.07,0000.07,24.5,01.1,0662.8,31.1
2020-05-25T01:29:00Z,00000380,01000600,0002.10,0000.69,-000.31,0000.23,0000.21,-000.22,0000.04,-000.10,0000.02,24.4,01.1,0662.8,31.1
2020-05-25T01:30:00Z,00000380,01000600,0001.34,0000.38,0000.62,-000.86,-000.06,0000.14,0000.01,-000.00,-000.11,24.4,01.1,0662.9,31.1
2020-05-25T01:31:00Z,00000380,01000600,0001.77,0000.49,0000.18,-000.29,0000.17,0000.29,-000.09,0000.02,0000.05,24.4,01.0,0662.9,31.1
2020-05-25T01:32:00Z,00000380,01000600,0001.13,0000.62,0000.20,0000.08,0000.21,0000.06,0000.06,-000.01,0000.15,24.4,01.0,0662.9,31.1
2020-05-25T01:33:00Z,00000380,01000600,0001.59,0000.11,0000.45,-000.60,0000.29,0000.31,0000.09,-000.14,-000.10,24.4,01.0,0662.9,31.1
2020-05-25T01:34:00Z,00000380,01000600,0000.77,0000.35,-000.01,0000.54,-000.06,0000.20,-000.08,0000.03,0000.03,24.4,01.0,0662.9,31.1
2020-05-25T01:35:00Z,00000380,01000600,-000.17,0000.26,0000.59,0000.07,-000.36,-000.11,0000.07,0000.18,0000.09,24.4,01.0,0662.9,31.1
2020-05-25T01:36:00Z,00000380,01000600,0000.69,0000.88,0000.37,0000.05,-000.24,0000.31,0000.06,0000.09,-000.04,24.4,01.0,0662.9,31.1
2020-05-25T01:37:00Z,00000380,01000600,0001.76,0000.66,0000.25,-000.44,0000.03,0000.03,-000.02,-000.02,0000.01,24.4,01.0,0662.9,31.1
2020-05-25T01:38:00Z,00000380,01000600,0001.08,0000.24,0000.56,-000.09,-000.11,0000.06,0000.15,0000.15,0000.03,24.4,01.0,0662.9,31.1
2020-05-25T01:39:00Z,00000380,01000600,0001.06,0000.49,-000.39,-000.21,-000.28,-000.19,0000.07,0000.13,0000.13,24.4,01.0,0662.8,31.1
2020-05-25T01:40:00Z,00000380,01000600,0001.17,0000.66,0000.28,0000.21,-000.46,0000.29,0000.07,-000.13,0000.08,24.4,01.0,0662.8,31.1
2020-05-25T01:41:00Z,00000380,01000600,0000.80,0000.54,0000.54,-000.07,-000.33,-000.18,-000.04,-000.04,-000.08,24.4,01.0,0662.8,31.1
2020-05-25T01:42:00Z,00000380,01000600,0001.35,0000.29,0000.14,-000.42,-000.20,0000.02,-000.05,0000.17,0000.02,24.4,01.0,0662.8,31.1
2020-05-25T01:43:00Z,00000380,01000600,0000.89,0000.76,0000.23,-000.19,-000.03,0000.18,0000.06,-000.04,0000.18,24.4,01.0,0662.8,31.1
2020-05-25T01:44:00Z,00000380,01000600,-001.36,0000.04,0000.39,-000.72,-000.01,0000.40,0000.09,0000.16,-000.21,24.4,01.0,0662.8,31.1
2020-05-25T01:45:00Z,00000380,01000600,-000.89,0000.43,0000.18,-000.22,-000.18,0000.37,0000.08,0000.02,0000.20,24.4,01.0,0662.8,31.1
2020-05-25T01:46:00Z,00000380,01000600,0002.07,0000.73,-000.16,0000.65,-000.13,-000.19,-000.10,-000.06,0000.03,24.4,01.0,0662.8,31.1
2020-05-25T01:47:00Z,00000380,01000600,0001.41,0000.29,-000.14,0001.04,-000.18,-000.01,0000.17,-000.01,0000.09,24.4,01.0,0662.8,31.1
2020-05-25T01:48:00Z,00000380,01000600,-000.14,0000.66,0000.04,0000.59,0000.22,0000.42,0000.03,0000.22,-000.06,24.4,01.0,0662.8,31.1
2020-05-25T01:49:00Z,00000380,01000600,0001.39,0000.61,0000.07,0000.08,-000.08,-000.08,0000.14,0000.01,0000.07,24.4,01.0,0662.8,31.1
2020-05-25T01:50:00Z,00000380,01000600,0001.29,0000.60,0000.32,-000.68,-000.23,-000.02,0000.02,-000.05,-000.00,24.4,00.9,0662.8,31.1
2020-05-25T01:51:00Z,00000380,01000600,-000.18,0000.38,0000.11,0000.10,-000.11,0000.39,-000.00,0000.09,0000.02,24.3,01.0,0662.8,31.1
2020-05-25T01:52:00Z,00000380,01000600,-000.83,0000.33,-000.02,-000.82,0000.39,-000.24,0000.14,0000.07,0000.08,24.4,01.0,0662.8,31.1
2020-05-25T01:53:00Z,00000380,01000600,-000.83,0000.71,-000.10,-000.13,-000.11,0000.04,-000.03,0000.02,-000.01,24.4,01.0,0662.8,31.1
2020-05-25T01:54:00Z,00000380,01000600,0000.83,0000.31,0000.34,0000.42,0000.34,-000.15,-000.08,-000.18,0000.02,24.3,01.0,0662.8,31.1
2020-05-25T01:55:00Z,00000380,01000600,0002.11,0000.49,-000.12,-000.46,-000.27,0000.26,0000.02,0000.17,-000.12,24.3,00.9,0662.8,31.1
2020-05-25T01:56:00Z,00000380,01000600,0000.83,0000.31,-000.23,-000.48,-000.16,-000.15,0000.25,0000.07,0000.23,24.3,01.0,0662.8,31.1
2020-05-25T01:57:00Z,00000380,41000600,,,,,,,,,,24.4,01.3,0662.9,31.1
2020-05-25T01:58:00Z,00000380,61000600,,,,,,,,,,24.5,00.8,0661.8,31.1
2020-05-25T01:59:00Z,00000380,21000600,,,,,,,,,,24.6,00.8,0661.8,31.1
2020-05-25T02:00:00Z,00000380,21000600,,,,,,,,,,24.6,00.8,0661.8,31.1
2020-05-25T02:01:00Z,00000380,21000600,,,,,,,,,,24.6,00.8,0661.8,31.1
2020-05-25T02:02:00Z,00000380,21000600,,,,,,,,,,24.6,00.8,0661.8,31.1
2020-05-25T02:03:00Z,00000380,61000600,,,,,,,,,,24.6,00.8,0661.8,31.1
2020-05-25T02:04:00Z,00000380,41000600,-000.53,-000.56,0000.36,0000.44,0000.38,0000.31,-000.18,-000.06,0000.05,24.4,00.8,0662.6,31.1
2020-05-25T02:05:00Z,00000380,01000600,0000.70,-000.28,0000.35,-001.07,-000.35,0000.40,0000.12,-000.09,0000.09,24.4,00.9,0662.7,31.1
2020-05-25T02:06:00Z,00000380,01000600,0001.81,-000.25,0000.56,-000.63,-000.59,0000.25,0000.03,0000.14,-000.06,24.3,00.8,0662.8,31.1
2020-05-25T02:07:00Z,00000380,01000600,0001.21,-000.18,0000.19,0000.78,-000.23,-000.11,-000.05,-000.03,0000.08,24.3,00.9,0662.8,31.1
2020-05-25T02:08:00Z,00000380,01000600,0000.69,-000.28,0000.32,0000.51,0000.08,-000.07,0000.07,0000.04,-000.01,24.3,00.9,0662.8,31.1
2020-05-25T02:09:00Z,00000380,01000600,0000.36,0000.16,0000.04,0000.09,0000.28,0000.18,0000.03,0000.11,0000.04,24.3,00.8,0662.8,31.1
2020-05-25T02:10:00Z,00000380,01000600,0001.11,-000.16,0000.04,0000.26,-000.35,0000.46,0000.16,0000.02,0000.10,24.3,00.8,0662.7,31.0
2020-05-25T02:11:00Z,00000380,01000600,0000.16,-000.29,0000.34,0000.26,0000.19,0000.31,-000.10,0000.09,0000.07,24.3,00.8,0662.7,31.1
2020-05-25T02:12:00Z,00000380,01000600,0001.57,-000.03,0000.29,-000.18,0000.32,0000.57,0000.22,0000.12,0000.05,24.3,00.8,0662.7,31.1
2020-05-25T02:13:00Z,00000380,01000600,0000.62,-000.39,0000.39,-000.81,-000.01,0000.33,0000.09,-000.00,-000.12,24.3,00.8,0662.7,31.1
2020-05-25T02:14:00Z,00000380,01000600,0001.08,-000.13,0000.22,0000.15,0000.07,0000.32,0000.07,0000.13,0000.06,24.3,00.9,0662.7,31.1
2020-05-25T02:15:00Z,00000380,01000600,0000.12,0000.14,0000.67,0000.61,-000.33,0000.53,0000.09,0000.05,0000.08,24.3,00.9,0662.7,31.0
2020-05-25T02:16:00Z,00000380,01000600,0002.00,0000.24,0000.70,-000.00,-000.24,0000.20,0000.04,-000.00,0000.07,24.3,00.9,0662.7,31.1
2020-05-25T02:17:00Z,00000380,01000600,0000.61,0000.33,0000.10,-000.45,0000.23,-000.05,0000.01,0000.15,0000.11,24.3,00.8,0662.7,31.0
2020-05-25T02:18:00Z,00000380,01000600,0000.55,-000.64,0000.41,0000.06,-000.06,-000.10,0000.03,0000.04,-000.02,24.2,00.8,0662.7,31.1
2020-05-25T02:19:00Z,00000380,01000600,-000.16,0000.30,0001.18,-000.72,0000.22,0000.12,0000.13,0000.01,-000.05,24.2,00.8,0662.7,31.1
2020-05-25T02:20:00Z,00000380,01000600,0000.95,0000.14,0000.58,-000.00,-000.22,-000.12,0000.02,0000.08,0000.11,24.2,00.9,0662.7,31.1
2020-05-25T02:21:00Z,00000380,01000600,-000.17,0000.29,0000.36,0000.24,-000.26,0000.22,-000.01,-000.03,0000.15,24.2,00.9,0662.7,31.1
2020-05-25T02:22:00Z,00000380,01000600,0001.81,-000.31,0000.56,0001.00,-000.35,0000.49,0000.16,0000.09,-000.27,24.2,00.8,0662.6,31.1
2020-05-25T02:23:00Z,00000380,01000600,0001.14,-000.43,0000.50,-001.03,-000.25,0000.01,-000.07,-000.05,0000.16,24.2,00.8,0662.6,31.1
2020-05-25T02:24:00Z,00000380,01000600,0000.01,-000.02,0000.60,0000.77,0000.25,0000.28,-000.07,0000.06,-000.00,24.2,00.8,0662.6,31.1
2020-05-25T02:25:00Z,00000380,01000600,0000.45,-000.16,0000.28,-000.00,-000.04,0000.44,0000.09,0000.13,-000.03,24.2,00.8,0662.6,31.0
2020-05-25T02:26:00Z,00000380,01000600,0000.52,0000.09,0000.13,0000.19,-000.15,-000.29,0000.09,-000.15,0000.09,24.2,00.8,0662.6,31.1
2020-05-25T02:27:00Z,00000380,01000600,0001.64,0000.02,0000.57,-000.76,0000.01,-000.10,-000.07,0000.07,0000.09,24.2,00.8,0662.6,31.0
2020-05-25T02:28:00Z,00000380,01000600,0000.50,0000.65,0000.60,-000.20,0000.14,-000.01,0000.03,-000.04,-000.03,24.2,00.8,0662.6,31.0
2020-05-25T02:29:00Z,00000380,01000600,0000.72,-000.13,0000.08,0000.03,-000.14,0000.17,0000.06,0000.14,0000.09,24.2,00.8,0662.6,31.0
2020-05-25T02:30:00Z,00000380,01000600,0000.25,0000.59,0000.68,-000.52,0000.06,0000.23,0000.01,-000.00,-000.07,24.2,00.7,0662.6,31.0
2020-05-25T02:31:00Z,00000380,01000600,0000.84,0000.12,0000.01,-000.11,0000.18,0000.18,-000.03,0000.04,0000.00,24.2,00.8,0662.6,31.1
2020-05-25T02:32:00Z,00000380,01000600,0001.14,0000.27,0000.35,-000.21,-000.07,0000.08,0000.20,0000.09,-000.01,24.2,00.8,0662.6,31.1
2020-05-25T02:33:00Z,00000380,01000600,0000.32,-000.36,0000.46,-000.07,0000.19,0000.28,0000.03,0000.07,0000.13,24.2,00.8,0662.6,31.1
2020-05-25T02:34:00Z,00000380,01000600,0000.70,-000.32,-000.00,0000.22,-000.13,0000.57,0000.10,-000.00,0000.03,24.2,00.7,0662.6,31.1
2020-05-25T02:35:00Z,00000380,01000600,0000.25,0000.11,0000.19,-000.72,-000.03,0000.25,-000.06,0000.07,0000.04,24.2,00.7,0662.6,31.0
2020-05-25T02:36:00Z,00000380,01000600,0000.86,0000.38,0000.16,-000.17,0000.17,0000.13,-000.02,0000.07,0000.06,24.2,00.7,0662.6,31.0
2020-05-25T02:37:00Z,00000380,01000600,0000.10,-000.05,0000.47,-000.89,-000.23,0000.47,0000.11,0000.11,0000.06,24.2,00.8,0662.6,31.0
2020-05-25T02:38:00Z,00000380,01000600,0000.34,0000.02,0000.45,0000.04,-000.61,0000.28,0000.08,0000.01,0000.07,24.2,00.8,0662.7,31.0
2020-05-25T02:39:00Z,00000380,01000600,0000.85,0000.38,0000.60,-000.47,0000.45,0000.57,0000.08,0000.12,-000.03,24.2,00.8,0662.7,31.0
2020-05-25T02:40:00Z,00000380,01000600,0000.77,0000.08,0001.03,0000.16,-000.33,0000.34,0000.11,0000.04,0000.15,24.2,00.8,0662.6,31.0
2020-05-25T02:41:00Z,00000380,01000600,0000.37,-000.19,-000.42,-000.19,-000.26,0000.37,0000.04,0000.09,0000.03,24.2,00.8,0662.6,31.0
2020-05-25T02:42:00Z,00000380,01000600,0000.12,-000.24,0000.65,-000.02,-000.54,-000.02,0000.15,0000.12,-000.03,24.2,00.8,0662.6,31.0
2020-05-25T02:43:00Z,00000380,01000600,0001.31,0000.72,0000.51,0000.06,-000.41,-000.30,0000.01,-000.01,0000.09,24.1,00.8,0662.6,31.0
2020-05-25T02:44:00Z,00000380,01000600,0000.91,0000.08,-000.05,-000.27,0000.65,0000.04,0000.01,0000.01,0000.13,24.1,00.8,0662.6,31.0
2020-05-25T02:45:00Z,00000380,01000600,0000.78,0000.12,0000.53,0000.44,-000.45,-000.06,-000.07,0000.00,-000.12,24.2,00.8,0662.6,31.1
2020-05-25T02:46:00Z,00000380,01000600,0000.38,-000.17,0000.30,-000.75,-000.29,0000.05,0000.25,-000.02,-000.01,24.1,00.8,0662.6,31.1
2020-05-25T02:47:00Z,00000380,01000600,0000.34,0000.02,0000.27,0000.32,-000.11,0000.45,-000.04,0000.23,0000.09,24.1,00.8,0662.6,31.1
2020-05-25T02:48:00Z,00000380,01000600,0000.76,0000.10,0000.44,0000.51,-000.17,0000.14,0000.18,0000.18,0000.12,24.1,00.8,0662.6,31.0
2020-05-25T02:49:00Z,00000380,01000600,0000.49,0000.13,0000.88,0000.52,0000.35,0000.27,0000.13,-000.14,0000.11,24.1,00.8,0662.5,31.0
2020-05-25T02:50:00Z,00000380,01000600,0001.09,0000.33,0000.53,-000.38,-000.03,-000.21,-000.06,0000.26,-000.03,24.1,00.8,0662.5,31.0
2020-05-25T02:51:00Z,00000380,01000600,0000.64,-000.00,0000.52,-000.63,-000.30,0000.16,-000.00,-000.10,-000.00,24.1,00.8,0662.5,31.1
2020-05-25T02:52:00Z,00000380,01000600,0000.19,-000.21,0000.59,0000.78,-000.19,-000.12,0000.12,0000.23,-000.00,24.1,00.7,0662.5,31.0
2020-05-25T02:53:00Z,00000380,01000600,0000.48,0000.31,-000.18,-000.01,0000.26,-000.12,0000.07,-000.02,0000.09,24.1,00.7,0662.5,31.0
2020-05-25T02:54:00Z,00000380,01000600,0001.26,0000.39,0000.31,-000.15,-000.32,0000.47,0000.12,0000.08,0000.19,24.1,00.9,0662.5,31.0
2020-05-25T02:55:00Z,00000380,01000600,0000.15,-000.06,0000.77,-000.10,-000.03,0000.34,0000.05,0000.08,-000.09,24.1,00.8,0662.5,31.0
2020-05-25T02:56:00Z,00000380,01000600,0000.49,-000.09,0000.19,0000.05,-000.19,0000.23,-000.01,-000.03,0000.05,24.1,00.8,0662.5,31.0
2020-05-25T02:57:00Z,00000380,40000600,,,,,,,,,,24.2,01.0,0662.3,31.0
2020-05-25T02:58:00Z,00000380,61000600,,,,,,,,,,24.2,00.7,0661.4,31.0
2020-05-25T02:59:00Z,00000380,21000600,,,,,,,,,,24.3,00.6,0661.4,31.0
2020-05-25T03:00:00Z,00000380,21000600,,,,,,,,,,24.4,00.6,0661.4,31.1
2020-05-25T03:01:00Z,00000380,21000600,,,,,,,,,,24.4,00.6,0661.4,31.1
2020-05-25T03:02:00Z,00000380,21000600,,,,,,,,,,24.4,00.6,0661.4,31.0
2020-05-25T03:03:00Z,00000380,61000600,,,,,,,,,,24.4,00.6,0661.4,31.0
2020-05-25T03:04:00Z,00000380,41000600,0001.04,0000.18,0000.53,0000.09,0000.69,0000.03,-000.07,0000.08,-000.09,24.2,00.7,0662.2,31.1
2020-05-25T03:05:00Z,00000380,01000600,0000.68,0000.06,0000.07,0000.21,0000.39,0000.12,0000.29,0000.16,0000.11,24.1,00.7,0662.3,31.1
2020-05-25T03:06:00Z,00000380,01000600,0000.22,0000.10,0000.14,-000.21,0000.84,0000.15,0000.05,0000.09,-000.06,24.1,00.8,0662.2,31.0
2020-05-25T03:07:00Z,00000380,01000600,0000.25,0000.07,0000.39,0000.09,0000.52,0000.67,0000.00,-000.01,0000.21,24.1,00.7,0662.2,31.0
2020-05-25T03:08:00Z,00000380,01000600,-000.22,0000.45,0000.15,0000.92,0000.03,0000.48,0000.04,-000.03,-000.03,24.1,00.8,0662.2,31.0
2020-05-25T03:09:00Z,00000380,01000600,0000.29,0000.54,0000.51,0000.47,0000.36,0000.57,0000.00,-000.05,0000.02,24.1,00.7,0662.2,31.0
2020-05-25T03:10:00Z,00000380,01000600,0001.39,0000.88,-000.05,0000.67,0000.04,0000.28,0000.04,0000.18,0000.01,24.1,00.7,0662.2,31.0